Weather in Vlasikha

Russia / Moscow Oblast     55°40′50″N   37°11′24″E
temp.,
°C
wind,
m/s
gust,
m/s
humid.,
%
clouds,
%
prec.,
mm/h
press.,
hPa
HPBL,
m
4 december, sat
sat400:000wsw41089100 0.1 999732
03:00−3wsw5138674 0.1 1001775
06:00−4wsw61387100 0.1 10011085
09:00−4wsw61390100 0.2 10031115
12:00−4w61287100 0.1 10051023
15:00−5w51185100 0.1 1007845
18:00−6wsw4119089 0.0 1009592
21:00−7wsw399572 0.0 1011311
5 december, sun
sun500:00−8ssw129871 0.0 101240
03:00−5sse1397100 0.4 1012124
06:00−4ssw259790 0.2 1012149
09:00−4ssw2696100 0.2 1013185
12:00−2ssw259284 0.1 1014338
15:00−2s149879 0.3 1014231
18:00−2s2497100 0.3 1015191
21:00−4ssw2597100 0.4 1016108
6 december, mon
mon600:00−3sw1398100 0.2 1017121
03:00−5se0198100 0.3 101935
06:00−5sse1198100 0.1 101966
09:00−5se1298100 0.1 102086
12:00−4sse2494100 0.0 1020197
15:00−3se2495100 0.0 1020198
18:00−3ese2695100 0.1 1020178
21:00−4se289199 0.1 1019226
7 december, tue
tue700:00−4se3891100 0.0 1018260
03:00−3se4997100 0.9 1016395
06:00−3se41197100 2.1 1014484
09:00−2se41097100 5.4 1012478
12:00−1sse2596100 0.8 1011336
15:000sw1294100 0.9 1011126
18:00−1nw2289100 0.0 101248
21:00−2nnw1396100 0.0 1012120
8 december, wed
wed800:00−3nnw3596100 0.0 1012277
03:00−4nnw369595 0.1 1014305
06:00−9nnw3896100 0.0 1015196
09:00−12nnw279656 0.0 1017159
12:00−10n359367 0.0 1018198
15:00−10n279430 0.0 1018243
18:00−12nne399571 0.0 1019201
21:00−13nne399591 0.0 1020224